STARLINK-11420, 62591

Orbit data source: Space-Track

STARLINK-11420, 62591 is a payload satellite owned by SpaceX/Seattle (US) in LEO that was launched on Mon, 13 Jan 2025 UTC via an FALCON 9 launch vehicle from the Air Force Eastern Test Range (AFETR). Payload-class satellites include a variety of spacecraft equipped with specific instruments for various scientific and technological missions. These include communications satellites like Starlink; space stations such as the ISS; scientific satellites like the Hubble; Earth observation satellites from companies like Planet Labs, Umbra, and HawkEye 360; GPS; miniature CubeSats for education and research; and military/defense satellites.

Loading next visibility...
Identifier
62591, 2025-008E
Orbit
LEO
Country
Flag of USUS
Related business
Manufacturer
SpaceX/Seattle
Mission
Operational Commercial Communications
Bus & Motor
STARLINK V2M, Unknown motor
Mass
730 kg wet, ~700 kg dry
Launch date (UTC)
2025-01-13 (8 months ago)
Launch vehicle
FALCON 9
Launch site
Air Force Eastern Test Range (AFETR)
Object type
Payload
Rocket body
Debris
Shape & HBR
Box + 2 Pan, 14.5 m
Radar Cross Section
36.964 m², Large (>1 m²)

Expand to show TLE details & history
Last TLE update: 1 day ago

TLE from 1 day ago
0 STARLINK-11420
1 62591U 25008E   25241.92862949  .00224093  00000-0  16938-2 0  9990
2 62591  42.9988 202.1766 0002182 229.5946 130.4731 15.70972252 37132
Epoch: 2025-08-29T22:17Z
TLE epoch observation values (Epoch: 2025-08-29T22:17:13.587Z)
Latitude
-0.00007°
Longitude
-110.50033°
Altitude
356.842 km
Speed
7.696 km/s
True Right ascension
13h 28m 42s
True Declination
0° 00' 00"
Sunlit
Object was in daylight at epoch
Visualization orbit readout
Latitude
Unknown
Longitude
Unknown
Altitude
Unknown
Speed
Unknown
Apparent Right ascension
Unknown
Apparent Declination
Unknown
Sunlit
N/A
Visualization observer readout
Local Sidereal Time
16:04:01
Azimuth
Unknown
Elevation
Unknown
Doppler factor
Unknown
Orbital elements
Apogee altitude
359.569 km
Perigee altitude
356.629 km
Semi-major axis
6,736.236 km
Eccentricity
0.00022
Inclination
42.9988°
RAAN
202.1766°
Arg. of periapsis
229.5946°
True anomaly
130.49212°
Mean anomaly
130.4731°
Eccentric anomaly
130.48261°
Mean motion
3.9257 °/min
Orbital period
91.7 mins
BSTAR
0.0016938
Loading maneuver chart data...
Computing Atmospheric mass density...
Loading historical data...
Loading historical data...
Loading historical data...
Loading historical data...
Loading historical data...
Loading historical data...
Loading historical data...

Documentation

Showing up to 5 results
|